Wind_Speed
17 18 19 21 22 23 23 23 23 23 23 23 23 23 22 22 22 22 23 23 23 23 22 21 22 22 23 25 26 28 30 30 29 29 28 26 24 23 22 21 21 21 21
16 18 20 21 21 22 22 21 21 21 21 21 21 21 21 20 20 20 20 21 21 21 21 20 20 20 21 24 26 27 29 31 31 31 31 30 28 26 24 23 22 22 22
17 19 19 20 21 22 22 21 20 20 20 19 19 19 19 20 20 20 20 19 19 19 19 19 19 18 18 20 23 25 28 30 32 32 32 32 32 30 28 26 25 24 23
19 20 21 22 21 22 21 21 20 19 19 19 19 19 19 19 19 20 20 19 19 19 19 19 19 19 18 19 19 22 25 28 31 33 34 34 35 34 32 31 29 28 26
20 21 23 22 21 20 19 18 18 18 19 19 19 19 19 19 19 19 20 20 20 20 19 19 19 19 19 19 19 20 23 25 28 31 34 36 37 36 35 35 33 32 30
21 21 21 20 17 16 16 17 18 18 19 20 20 20 19 19 20 20 20 21 21 21 21 20 20 20 20 20 20 19 22 24 26 28 30 34 36 37 37 37 36 34 33
18 18 17 17 17 17 17 18 19 19 20 20 20 20 19 19 20 20 21 21 21 21 21 21 20 20 20 20 20 21 21 22 24 26 28 30 33 36 37 38 37 36 36
17 17 18 19 19 18 18 19 20 20 21 21 20 20 19 20 20 20 21 21 21 21 21 22 21 21 21 20 20 21 21 22 23 23 25 29 31 33 35 37 37 37 37
18 19 19 20 20 20 20 21 21 20 21 20 20 20 20 20 20 20 20 20 21 21 21 21 21 22 21 21 21 22 22 22 23 24 25 26 28 31 33 35 37 37 38
19 19 19 20 20 20 20 20 20 19 20 20 20 20 20 20 20 20 20 20 20 21 21 21 21 22 22 22 22 21 21 21 22 22 24 26 27 29 29 31 33 34 36
18 19 19 19 19 20 19 19 18 18 19 20 20 20 20 20 20 20 20 20 20 20 21 21 21 21 21 21 22 22 22 21 21 22 22 24 25 27 29 30 30 31 33
18 19 19 19 19 19 18 18 19 19 19 20 20 20 20 20 20 20 20 20 20 20 20 21 21 21 21 21 21 21 22 22 22 22 22 23 24 25 26 27 29 30 31
18 18 18 18 18 18 18 18 18 19 19 20 19 19 20 20 21 21 20 20 20 20 20 21 21 21 21 21 21 21 21 22 22 22 22 23 23 24 25 26 26 27 29
17 17 17 18 18 18 18 18 18 18 18 18 18 19 19 19 20 20 20 20 20 20 21 21 21 21 21 21 21 21 20 21 22 22 22 22 23 24 24 25 26 26 27
17 17 17 17 17 17 17 16 16 16 16 16 16 17 17 17 17 17 17 18 18 19 20 21 20 20 20 20 21 20 20 20 21 21 22 22 23 24 25 26 26 27 28
17 17 17 17 16 15 14 14 14 14 14 13 13 12 12 12 12 12 12 13 14 15 16 18 18 19 18 18 19 19 19 20 20 21 21 22 23 24 25 26 28 28 29
18 17 16 15 14 13 12 12 12 11 11 10 10 9 8 7 6 6 6 7 8 9 11 12 13 14 14 15 16 17 17 18 19 20 21 22 23 25 26 27 28 30 31
17 16 15 14 13 12 11 10 10 9 9 8 8 7 6 5 4 2 1 2 3 4 6 7 8 9 10 11 12 13 15 16 17 19 20 22 23 25 26 28 30 31 32
17 16 14 13 12 10 9 9 9 8 8 8 7 7 6 6 5 4 4 3 2 2 3 4 4 5 6 7 9 11 13 15 16 18 20 21 23 25 27 28 30 31 33
16 16 14 13 12 11 10 9 9 9 9 9 9 8 8 7 7 7 6 5 5 4 3 2 2 2 4 5 7 9 11 13 15 17 19 21 23 24 26 28 29 31 32
16 16 15 14 13 12 11 11 10 10 10 10 10 10 10 10 9 9 8 7 7 6 4 3 2 2 3 4 6 8 10 12 14 16 18 19 21 23 25 26 28 29 31
17 16 16 15 14 14 13 13 12 12 12 12 12 12 12 12 11 11 10 10 9 8 7 6 5 5 5 5 7 8 10 11 13 15 17 19 21 22 24 26 27 29 30
16 16 16 16 16 15 14 14 14 13 13 13 13 13 13 13 12 12 12 11 11 10 9 9 8 8 9 9 10 11 12 13 15 17 18 20 21 22 24 25 26 28 29
15 15 15 15 15 15 15 14 14 14 14 14 14 14 14 13 13 12 12 12 11 11 11 10 10 11 11 11 12 13 14 15 17 18 19 20 21 22 23 24 25 26 27
13 13 13 13 14 14 14 14 14 14 14 14 14 14 14 14 13 13 13 12 12 12 12 12 12 12 13 14 15 15 16 18 19 20 21 22 22 23 23 24 24 25 25
11 11 12 12 13 13 13 14 14 14 13 13 13 13 13 13 13 12 12 12 12 12 13 13 13 14 14 15 16 17 18 19 20 21 22 23 24 24 24 24 24 24 25
Wind_Direction
259 263 267 270 272 273 274 275 276 275 275 274 272 271 269 266 263 261 260 258 257 256 253 249 248 248 243 236 234 232 228 228 230 229 229 230 231 234 235 235 236 237 238
263 269 272 275 275 274 273 274 275 274 274 273 270 269 267 265 262 260 259 257 256 254 249 247 247 246 245 239 238 236 231 229 229 230 230 230 231 234 236 237 237 237 238
268 272 275 276 275 277 276 275 276 276 276 273 270 269 267 264 261 259 258 257 255 252 251 249 247 245 245 241 240 238 235 232 230 230 230 232 232 235 237 238 238 238 238
275 277 275 276 275 276 275 275 275 275 275 275 273 271 269 267 263 259 257 256 255 253 252 250 249 246 244 244 245 243 239 237 234 233 234 233 234 236 238 239 239 240 241
278 279 280 281 276 274 272 275 274 274 276 277 277 275 272 271 267 263 259 257 255 255 253 250 248 248 248 245 247 245 243 243 241 238 236 236 235 236 238 239 240 242 243
283 284 286 288 288 283 282 279 279 279 281 280 278 277 276 273 269 266 262 259 256 254 253 251 249 249 250 249 247 247 244 245 245 241 239 238 237 236 237 239 242 243 243
288 288 291 289 292 290 287 283 282 285 287 284 281 279 277 275 272 269 265 261 257 253 251 250 250 250 250 249 248 247 248 247 245 244 243 240 240 239 240 241 241 241 242
294 294 294 294 293 294 292 289 287 287 287 287 284 280 278 276 273 269 266 261 257 254 252 250 250 250 250 250 249 249 248 248 247 245 245 244 244 243 243 242 241 242 243
298 298 298 297 296 294 293 292 290 288 287 288 287 284 281 278 273 268 265 263 258 255 254 253 251 251 251 250 250 250 249 249 248 248 249 248 248 246 246 245 244 244 244
302 301 300 299 298 296 295 293 291 289 288 288 287 285 282 279 275 271 266 262 259 257 255 253 251 251 251 251 251 252 251 251 250 250 250 248 249 248 247 247 247 246 245
305 304 303 302 301 299 297 295 292 291 289 288 287 285 282 279 275 272 269 263 260 258 256 254 251 250 249 249 249 251 252 253 253 253 253 250 248 248 247 249 251 248 247
309 307 306 305 304 303 301 297 294 293 292 290 288 285 281 278 274 272 270 266 261 258 256 254 252 250 250 249 249 250 252 253 254 254 254 252 250 250 250 250 251 250 249
311 310 310 309 308 306 304 301 298 297 295 293 290 286 282 278 275 272 269 265 260 256 255 254 253 253 252 250 251 251 252 253 253 254 254 254 252 252 252 251 251 250 249
315 314 313 312 312 311 308 305 303 302 300 295 291 288 285 280 275 270 267 263 258 254 252 252 251 251 251 251 251 252 253 253 253 255 256 257 256 255 255 255 254 254 257
319 318 316 314 313 312 311 309 309 308 306 301 296 294 290 284 276 270 264 259 255 251 249 249 248 247 248 249 250 252 253 254 255 256 257 258 258 258 257 258 259 260 261
327 325 323 321 319 317 316 316 316 316 315 313 309 304 299 292 282 272 263 257 253 250 247 245 244 245 245 246 248 251 253 255 258 259 260 261 261 262 261 261 262 263 264
336 335 333 332 330 328 326 326 327 328 329 330 328 326 321 315 299 278 262 254 247 243 239 237 236 237 240 243 247 250 253 257 259 261 262 263 264 265 266 267 267 267 267
345 345 345 345 344 341 341 342 346 349 351 353 355 357 359 1 0 354 316 249 230 221 217 218 222 229 236 241 248 254 257 261 264 265 266 267 268 269 270 270 271 271 271
357 358 359 0 1 1 4 5 8 12 15 17 20 24 30 35 43 53 64 74 100 155 176 190 209 224 236 246 256 261 265 269 271 272 273 274 275 276 276 276 276 276 276
10 12 13 15 19 22 25 26 28 32 36 37 40 43 47 52 59 66 71 72 78 92 113 148 196 238 256 264 272 279 281 281 282 282 283 284 284 283 283 282 282 282 281
20 22 24 27 31 35 38 40 44 48 49 51 52 54 56 60 65 68 68 70 72 74 76 70 49 12 332 318 308 304 302 299 297 297 296 296 295 293 291 290 289 288 286
26 30 33 37 43 47 50 52 56 58 59 59 60 61 62 64 66 68 68 68 69 69 65 57 45 31 15 358 344 334 328 322 318 315 313 310 307 304 301 298 296 294 292
31 34 39 44 49 53 57 59 61 61 61 62 63 63 63 63 64 64 64 63 61 58 55 49 39 30 21 10 360 352 345 339 335 331 326 322 318 315 312 309 306 304 301
33 37 41 46 51 55 59 61 61 62 63 63 62 62 62 61 61 60 58 56 54 51 47 41 33 26 20 14 7 1 356 351 346 342 339 336 331 328 325 322 319 316 313
35 38 43 48 52 55 58 60 61 61 62 61 61 60 60 59 59 58 56 54 51 47 43 37 32 26 20 14 8 5 2 359 356 354 352 349 347 344 340 337 334 331 329
36 40 44 49 53 55 56 58 59 59 59 59 59 59 58 56 54 52 49 47 43 39 36 32 29 25 20 16 13 11 8 6 4 2 1 359 358 357 355 353 349 346 344
Height
5801 5801 5802 5802 5801 5801 5800 5799 5798 5797 5795 5794 5793 5792 5792 5792 5791 5791 5791 5791 5791 5792 5792 5793 5795 5796 5797 5799 5802 5804 5807 5811 5814 5818 5821 5824 5826 5828 5830 5832 5834 5836 5838
5795 5795 5795 5795 5794 5793 5793 5792 5791 5790 5789 5788 5787 5786 5786 5786 5785 5785 5785 5785 5786 5786 5787 5788 5789 5790 5791 5793 5795 5798 5800 5803 5807 5811 5815 5818 5820 5823 5825 5827 5829 5831 5833
5790 5789 5788 5788 5787 5786 5785 5785 5784 5783 5783 5782 5781 5781 5780 5780 5780 5780 5780 5780 5781 5781 5782 5782 5783 5784 5786 5787 5789 5791 5794 5796 5800 5804 5807 5811 5814 5817 5819 5822 5824 5826 5827
5784 5783 5782 5780 5780 5780 5779 5778 5777 5777 5777 5776 5776 5775 5775 5775 5775 5775 5775 5775 5775 5776 5777 5778 5778 5779 5781 5782 5783 5785 5787 5790 5793 5796 5800 5803 5807 5810 5813 5815 5817 5819 5821
5779 5778 5775 5774 5773 5772 5772 5771 5771 5771 5771 5771 5770 5769 5769 5769 5769 5769 5769 5770 5770 5771 5771 5772 5773 5774 5776 5777 5778 5779 5781 5783 5786 5789 5792 5795 5799 5802 5805 5808 5810 5812 5815
5774 5772 5770 5769 5767 5766 5765 5765 5765 5765 5765 5765 5764 5763 5763 5763 5763 5763 5764 5764 5765 5765 5766 5767 5768 5769 5770 5771 5773 5774 5776 5777 5779 5781 5784 5787 5791 5793 5797 5799 5802 5805 5807
5769 5768 5766 5764 5762 5762 5761 5760 5759 5759 5759 5758 5758 5757 5757 5757 5757 5757 5757 5758 5758 5759 5760 5761 5762 5763 5764 5766 5767 5768 5770 5771 5773 5775 5777 5779 5782 5785 5788 5791 5793 5796 5798
5765 5764 5762 5760 5759 5757 5756 5755 5754 5753 5752 5752 5751 5751 5750 5750 5750 5750 5751 5751 5752 5753 5754 5755 5756 5757 5758 5760 5761 5762 5763 5765 5766 5768 5770 5772 5774 5776 5779 5782 5784 5787 5790
5761 5759 5758 5756 5754 5753 5751 5750 5749 5747 5746 5745 5745 5744 5744 5744 5743 5744 5744 5745 5746 5746 5748 5748 5750 5751 5752 5753 5755 5756 5757 5759 5760 5761 5763 5765 5766 5768 5770 5773 5775 5778 5780
5757 5755 5753 5751 5749 5748 5746 5744 5743 5741 5740 5739 5739 5738 5737 5737 5737 5737 5738 5738 5739 5740 5741 5742 5743 5744 5746 5747 5749 5750 5751 5753 5754 5755 5756 5757 5759 5761 5762 5764 5766 5768 5770
5753 5751 5749 5747 5744 5742 5740 5738 5737 5736 5734 5733 5732 5732 5731 5730 5730 5730 5731 5731 5732 5733 5735 5736 5737 5738 5740 5741 5743 5744 5745 5747 5748 5749 5750 5751 5752 5753 5755 5756 5758 5759 5761
5749 5747 5744 5742 5739 5737 5735 5733 5731 5730 5729 5727 5726 5725 5724 5724 5724 5724 5724 5725 5726 5727 5728 5729 5731 5732 5734 5735 5737 5738 5739 5740 5742 5743 5744 5744 5745 5747 5748 5749 5750 5751 5752
5745 5743 5740 5737 5734 5732 5730 5728 5726 5724 5722 5721 5720 5719 5718 5717 5717 5717 5717 5718 5719 5720 5722 5723 5725 5726 5728 5729 5731 5732 5733 5735 5736 5737 5738 5738 5739 5740 5741 5742 5742 5743 5744
5742 5739 5736 5733 5730 5728 5725 5723 5721 5719 5717 5715 5713 5712 5711 5710 5710 5710 5710 5711 5712 5714 5715 5717 5718 5720 5722 5723 5725 5726 5728 5729 5730 5731 5732 5732 5733 5734 5734 5735 5735 5736 5736
5739 5735 5732 5729 5726 5724 5721 5719 5716 5714 5712 5710 5708 5706 5705 5704 5704 5703 5704 5704 5705 5707 5708 5710 5712 5714 5716 5718 5719 5721 5722 5723 5724 5725 5726 5726 5727 5727 5728 5728 5728 5728 5728
5735 5732 5728 5725 5722 5720 5717 5715 5713 5711 5708 5706 5704 5702 5700 5699 5698 5698 5698 5699 5700 5701 5703 5704 5706 5708 5710 5712 5714 5716 5717 5718 5719 5719 5720 5720 5721 5721 5721 5721 5721 5720 5720
5732 5729 5725 5722 5719 5716 5714 5712 5710 5708 5706 5704 5702 5700 5698 5697 5695 5695 5695 5696 5696 5698 5699 5700 5702 5704 5706 5708 5710 5711 5712 5713 5714 5714 5714 5714 5714 5714 5714 5713 5713 5712 5711
5730 5726 5723 5720 5717 5714 5712 5710 5709 5707 5705 5703 5701 5699 5698 5697 5696 5695 5695 5696 5696 5697 5698 5699 5701 5702 5704 5705 5707 5708 5708 5709 5709 5709 5709 5709 5708 5707 5706 5705 5704 5703 5702
5729 5725 5722 5719 5716 5714 5712 5710 5709 5707 5705 5704 5702 5701 5699 5698 5697 5697 5697 5697 5697 5697 5698 5699 5700 5701 5702 5704 5704 5705 5705 5705 5705 5704 5704 5703 5702 5700 5699 5697 5695 5694 5692
5729 5726 5722 5719 5717 5715 5713 5711 5710 5708 5707 5705 5704 5703 5702 5701 5700 5699 5699 5699 5699 5699 5699 5700 5701 5701 5702 5702 5703 5702 5702 5701 5701 5700 5698 5697 5695 5693 5691 5689 5687 5684 5682
5731 5727 5724 5721 5719 5716 5715 5713 5712 5710 5709 5708 5707 5706 5705 5703 5703 5702 5702 5701 5701 5701 5701 5701 5702 5702 5702 5702 5701 5701 5700 5698 5697 5695 5693 5691 5689 5686 5683 5680 5677 5674 5671
5733 5730 5727 5724 5721 5719 5718 5716 5715 5714 5712 5711 5710 5709 5708 5707 5706 5705 5705 5705 5704 5704 5704 5703 5703 5703 5702 5701 5700 5699 5698 5696 5694 5691 5689 5686 5683 5679 5676 5672 5669 5665 5661
5736 5733 5730 5728 5725 5723 5721 5720 5719 5717 5716 5715 5714 5713 5712 5711 5710 5709 5709 5708 5707 5707 5706 5705 5704 5703 5702 5701 5700 5698 5696 5694 5691 5688 5684 5681 5677 5673 5669 5664 5660 5655 5651
5739 5736 5734 5732 5729 5727 5726 5724 5723 5722 5721 5719 5718 5717 5716 5715 5714 5713 5712 5711 5710 5709 5708 5707 5706 5704 5703 5701 5699 5697 5694 5691 5688 5685 5681 5676 5672 5667 5662 5657 5652 5647 5642
5742 5740 5738 5736 5734 5732 5730 5729 5727 5726 5725 5724 5723 5721 5720 5719 5718 5717 5716 5714 5713 5712 5711 5709 5707 5706 5704 5701 5699 5696 5693 5690 5686 5682 5678 5673 5668 5662 5657 5651 5645 5640 5634
5745 5743 5741 5740 5738 5736 5735 5733 5732 5730 5729 5728 5727 5725 5724 5723 5721 5720 5719 5717 5716 5714 5713 5711 5709 5707 5704 5702 5699 5696 5693 5689 5685 5680 5676 5671 5665 5659 5654 5647 5642 5636 5630